Wilkerson Pass, CO

3:18 AM MDT on May 25, 2017 (GMT -0600)
Wilkerson Pass

Weather History for K4BM - October, 2013

Change the Weather History Date:

Sunday, October 27, 2013

  Actual Average (KAFF) Record (KAFF)
Temperature  
Mean Temperature 39 °F -  
Max Temperature 48 °F 53 °F 76 °F (2016)
Min Temperature 30 °F 31 °F 10 °F (2011)
Degree Days  
Heating Degree Days 26    
Moisture  
Dew Point 15 °F    
Average Humidity 45    
Maximum Humidity 69    
Minimum Humidity 22    
Precipitation  
Precipitation 0.00 in - - ()
Sea Level Pressure  
Sea Level Pressure 30.27 in    
Wind  
Wind Speed 9 mph (WSW)    
Max Wind Speed 14 mph    
Max Gust Speed 25 mph    
Visibility 10 miles    
Events      
Averages and records for this station are not official NWS values.
T = Trace of Precipitation, MM = Missing Value Source: NWS Daily Summary

Daily Weather History Graph

Daily Weather History Graph

Search for Another Location

Airport or City:

Trip Planner

Search our weather history database for the weather conditions in past years. The results will help you decide how hot, cold, wet, or windy it might be!

Date:

Astronomy

Oct. 27, 2013 Rise Set
Actual Time 7:24 AM MDT 6:06 PM MDT
Civil Twilight 6:56 AM MDT 6:34 PM MDT
Nautical Twilight 6:25 AM MDT 7:05 PM MDT
Astronomical Twilight 5:54 AM MDT 7:36 PM MDT
Moon 12:27 AM MDT (10/27) 2:14 PM MDT (10/27)
Length of Visible Light 11h 37m
Length of Day
10h 42m
Last Quarter, 43% of the Moon is Illuminated
Oct 27
Last Quarter
Nov 3
New
Nov 9
First Quarter
Nov 17
Full
Nov 25
Last Quarter

Hourly Weather History & Observations

Time (MDT) Temp. Windchill Dew Point Humidity Pressure Visibility Wind Dir Wind Speed Gust Speed Precip Events Conditions
12:01 AM 32.0 °F 24.8 °F 17.6 °F 55% 30.43 in 10.0 mi WSW 8.1 mph - N/A   Clear
12:21 AM 32.0 °F 24.8 °F 15.8 °F 51% 30.43 in 10.0 mi WSW 8.1 mph - N/A   Clear
12:42 AM 32.0 °F 23.6 °F 14.0 °F 48% 30.42 in 10.0 mi West 10.4 mph 18.4 mph N/A   Clear
1:02 AM 32.0 °F 23.6 °F 15.8 °F 51% 30.41 in 10.0 mi West 10.4 mph 17.3 mph N/A   Clear
1:22 AM 32.0 °F 24.2 °F 17.6 °F 55% 30.40 in 10.0 mi WSW 9.2 mph 19.6 mph N/A   Clear
1:42 AM 32.0 °F 24.2 °F 17.6 °F 55% 30.40 in 10.0 mi WSW 9.2 mph 20.7 mph N/A   Clear
2:02 AM 32.0 °F 23.0 °F 15.8 °F 51% 30.40 in 10.0 mi West 11.5 mph 20.7 mph N/A   Clear
2:22 AM 32.0 °F 23.6 °F 15.8 °F 51% 30.39 in 10.0 mi West 10.4 mph 21.9 mph N/A   Clear
2:42 AM 32.0 °F 23.6 °F 15.8 °F 51% 30.39 in 10.0 mi West 10.4 mph 18.4 mph N/A   Clear
3:02 AM 32.0 °F 23.0 °F 15.8 °F 51% 30.38 in 10.0 mi West 11.5 mph 20.7 mph N/A   Clear
3:22 AM 32.0 °F 22.1 °F 15.8 °F 51% 30.37 in 10.0 mi West 13.8 mph 21.9 mph N/A   Clear
3:41 AM 32.0 °F 23.6 °F 15.8 °F 51% 30.36 in 10.0 mi West 10.4 mph 20.7 mph N/A   Clear
4:02 AM 32.0 °F 23.6 °F 15.8 °F 51% 30.36 in 10.0 mi West 10.4 mph 19.6 mph N/A   Clear
4:22 AM 32.0 °F 23.6 °F 17.6 °F 55% 30.35 in 10.0 mi West 10.4 mph 21.9 mph N/A   Clear
4:42 AM 32.0 °F 22.5 °F 15.8 °F 51% 30.35 in 10.0 mi West 12.7 mph 23.0 mph N/A   Clear
5:02 AM 32.0 °F 23.6 °F 15.8 °F 51% 30.34 in 10.0 mi West 10.4 mph 19.6 mph N/A   Clear
5:22 AM 32.0 °F 23.6 °F 15.8 °F 51% 30.34 in 10.0 mi West 10.4 mph 19.6 mph N/A   Clear
5:42 AM 30.2 °F 21.9 °F 15.8 °F 55% 30.34 in 10.0 mi West 9.2 mph 18.4 mph N/A   Clear
6:01 AM 30.2 °F 21.3 °F 17.6 °F 60% 30.34 in 10.0 mi West 10.4 mph 16.1 mph N/A   Clear
6:22 AM 30.2 °F 21.9 °F 15.8 °F 55% 30.33 in 10.0 mi WNW 9.2 mph 16.1 mph N/A   Clear
6:42 AM 30.2 °F 21.3 °F 15.8 °F 55% 30.33 in 10.0 mi WNW 10.4 mph - N/A   Clear
7:02 AM 30.2 °F 21.9 °F 14.0 °F 51% 30.32 in 10.0 mi WNW 9.2 mph 18.4 mph N/A   Clear
7:22 AM 30.2 °F 21.9 °F 14.0 °F 51% 30.31 in 10.0 mi WNW 9.2 mph 17.3 mph N/A   Clear
7:41 AM 30.2 °F 20.8 °F 14.0 °F 51% 30.31 in 10.0 mi West 11.5 mph 23.0 mph N/A   Clear
8:01 AM 32.0 °F 22.5 °F 14.0 °F 48% 30.31 in 10.0 mi West 12.7 mph 25.3 mph N/A   Clear
8:21 AM 32.0 °F 23.0 °F 14.0 °F 48% 30.32 in 10.0 mi West 11.5 mph 19.6 mph N/A   Clear
8:41 AM 32.0 °F 23.6 °F 14.0 °F 48% 30.32 in 10.0 mi West 10.4 mph 19.6 mph N/A   Clear
9:02 AM 32.0 °F 23.0 °F 14.0 °F 48% 30.31 in 10.0 mi West 11.5 mph 19.6 mph N/A   Clear
9:22 AM 32.0 °F 22.5 °F 14.0 °F 48% 30.31 in 10.0 mi West 12.7 mph 18.4 mph N/A   Clear
9:42 AM 32.0 °F 24.2 °F 15.8 °F 51% 30.31 in 10.0 mi West 9.2 mph 25.3 mph N/A   Clear
10:02 AM 33.8 °F 25.8 °F 17.6 °F 52% 30.31 in 10.0 mi West 10.4 mph 17.3 mph N/A   Clear
10:22 AM 35.6 °F 29.2 °F 17.6 °F 48% 30.30 in 10.0 mi WSW 8.1 mph - N/A   Clear
10:42 AM 37.4 °F 32.1 °F 17.6 °F 45% 30.30 in 10.0 mi SW 6.9 mph - N/A   Clear
11:02 AM 41.0 °F 35.2 °F 15.8 °F 36% 30.29 in 10.0 mi SW 9.2 mph 17.3 mph N/A   Clear
11:22 AM 42.8 °F 38.0 °F 15.8 °F 34% 30.28 in 10.0 mi SW 8.1 mph 18.4 mph N/A   Clear
11:42 AM 42.8 °F 36.6 °F 14.0 °F 31% 30.28 in 10.0 mi SSW 11.5 mph 18.4 mph N/A   Clear
12:02 PM 44.6 °F 41.4 °F 14.0 °F 29% 30.27 in 10.0 mi SSW 5.8 mph - N/A   Clear
12:22 PM 44.6 °F 41.4 °F 14.0 °F 29% 30.26 in 10.0 mi SW 5.8 mph - N/A   Clear
12:42 PM 44.6 °F 40.2 °F 10.4 °F 25% 30.25 in 10.0 mi West 8.1 mph 17.3 mph N/A   Clear
1:01 PM 48.2 °F - 12.2 °F 24% 30.24 in 10.0 mi SW 4.6 mph 19.6 mph N/A   Clear
1:22 PM 46.4 °F 43.5 °F 10.4 °F 23% 30.22 in 10.0 mi SW 5.8 mph 16.1 mph N/A   Clear
1:41 PM 48.2 °F - 10.4 °F 22% 30.21 in 10.0 mi SSW 8.1 mph - N/A   Clear
2:02 PM 46.4 °F 42.4 °F 12.2 °F 25% 30.20 in 10.0 mi SSW 8.1 mph - N/A   Clear
2:22 PM 46.4 °F 44.3 °F 12.2 °F 25% 30.20 in 10.0 mi SSW 4.6 mph - N/A   Scattered Clouds
2:41 PM 44.6 °F 40.2 °F 12.2 °F 27% 30.19 in 10.0 mi SSW 8.1 mph - N/A   Scattered Clouds
3:01 PM 48.2 °F - 12.2 °F 24% 30.19 in 10.0 mi SW 5.8 mph - N/A   Scattered Clouds
3:21 PM 46.4 °F 43.5 °F 12.2 °F 25% 30.19 in 10.0 mi SW 5.8 mph - N/A   Mostly Cloudy
3:42 PM 44.6 °F 42.2 °F 12.2 °F 27% 30.19 in 10.0 mi SSW 4.6 mph - N/A   Scattered Clouds
4:01 PM 42.8 °F 39.3 °F 10.4 °F 27% 30.19 in 10.0 mi SSW 5.8 mph - N/A   Clear
4:21 PM 42.8 °F 39.3 °F 10.4 °F 27% 30.19 in 10.0 mi SSW 5.8 mph - N/A   Clear
4:41 PM 41.0 °F 36.4 °F 10.4 °F 29% 30.17 in 10.0 mi SSW 6.9 mph - N/A   Clear
5:00 PM 41.0 °F 37.1 °F 10.4 °F 29% 30.17 in 10.0 mi SSW 5.8 mph - N/A   Clear
5:22 PM 41.0 °F 37.1 °F 12.2 °F 31% 30.17 in 10.0 mi SSW 5.8 mph - N/A   Clear
5:41 PM 41.0 °F 38.0 °F 14.0 °F 33% 30.17 in 10.0 mi SSW 4.6 mph - N/A   Scattered Clouds
6:01 PM 37.4 °F 32.1 °F 12.2 °F 36% 30.17 in 10.0 mi SW 6.9 mph - N/A   Scattered Clouds
6:21 PM 35.6 °F 29.9 °F 12.2 °F 38% 30.18 in 10.0 mi SW 6.9 mph - N/A   Scattered Clouds
6:41 PM 35.6 °F 29.9 °F 14.0 °F 41% 30.18 in 10.0 mi SSW 6.9 mph - N/A   Clear
7:01 PM 35.6 °F 29.9 °F 14.0 °F 41% 30.19 in 10.0 mi SW 6.9 mph - N/A   Clear
7:21 PM 35.6 °F 29.2 °F 14.0 °F 41% 30.18 in 10.0 mi SW 8.1 mph - N/A   Clear
7:41 PM 35.6 °F 31.7 °F 14.0 °F 41% 30.18 in 10.0 mi SW 4.6 mph - N/A   Clear
8:01 PM 35.6 °F 32.8 °F 14.0 °F 41% 30.18 in 10.0 mi SW 3.5 mph - N/A   Clear
8:21 PM 33.8 °F 28.6 °F 14.0 °F 44% 30.17 in 10.0 mi SW 5.8 mph - N/A   Scattered Clouds
8:41 PM 33.8 °F 28.6 °F 14.0 °F 44% 30.17 in 10.0 mi SW 5.8 mph - N/A   Scattered Clouds
9:01 PM 33.8 °F 27.7 °F 17.6 °F 52% 30.17 in 10.0 mi SSW 6.9 mph - N/A   Clear
9:21 PM 33.8 °F 29.6 °F 21.2 °F 60% 30.17 in 10.0 mi SSW 4.6 mph - N/A   Clear
9:41 PM 33.8 °F 30.8 °F 21.2 °F 60% 30.17 in 10.0 mi SSW 3.5 mph - N/A   Clear
10:01 PM 33.8 °F 30.8 °F 23.0 °F 65% 30.17 in 10.0 mi SSW 3.5 mph - N/A   Scattered Clouds
10:21 PM 32.0 °F 28.7 °F 23.0 °F 69% 30.17 in 10.0 mi SSW 3.5 mph - N/A   Scattered Clouds
10:41 PM 33.8 °F - 23.0 °F 65% 30.17 in 10.0 mi Calm Calm - N/A   Mostly Cloudy
11:01 PM 32.0 °F - 23.0 °F 69% 30.17 in 10.0 mi Calm Calm - N/A   Mostly Cloudy
11:20 PM 32.0 °F 27.5 °F 21.2 °F 64% 30.16 in 10.0 mi South 4.6 mph - N/A   Scattered Clouds
11:42 PM 33.8 °F 29.6 °F 21.2 °F 60% 30.15 in 10.0 mi South 4.6 mph - N/A   Mostly Cloudy